Weather Roundup
Issued by NWS

Home | Current Version | Previous Version | Graphics & Text | Print | Product List | Glossary Off
Versions: 1 2 3 4 5 6 7 8 9 10 11 12 13 14 15 16 17 18 19 20 21 22 23 24 25 26 27 28 29 30 31 32 33 34 35 36 37 38 39 40 41 42 43 44 45 46 47 48 49 50

000
NZUS93 KARX 210759
HRRWXR

CURRENT HOURLY OBSERVATIONS ACROSS
MUCH OF THE UPPER MISSISSIPPI VALLEY
NATIONAL WEATHER SERVICE LA CROSSE WI
300 AM CDT MON APR 21 2014


...SOUTHEAST MINNESOTA...


CITY           SKY/WX    TMP DP  RH WIND       PRES   REMARKS
ROCHESTER      CLOUDY    59  55  87 S17       29.92F
ROCHESTER/MAYO FAIR      59  55  87 SW8G17    29.92S
WINONA           N/A    N/A N/A N/A MISG        N/A
AUSTIN         CLOUDY    57  57 100 E8        29.92F
ALBERT LEA     CLOUDY    61  57  88 S3        29.92F
DODGE CENTER   TSTM      61  57  88 S8        29.94S
PRESTON        RAIN      57  55  94 SW6       29.97F
OWATONNA       CLOUDY    61  55  82 S14       29.91F
FARIBAULT      TSTM      63  55  77 SE7       29.91F
$$

...ELSEWHERE IN MINNESOTA...


CITY           SKY/WX    TMP DP  RH WIND       PRES   REMARKS
MINNEAPOLIS    CLOUDY    57  56  96 W8        29.94R
INTNL FALLS    PTCLDY    45  30  55 SW6       29.85R
DULUTH         PTCLDY    49  28  44 SE9       29.90F
RED WING       CLOUDY    55  52  88 CALM      29.91F
REDWOOD FALLS  PTCLDY    55  53  93 S7        29.87F
MANKATO        CLOUDY    55  54  94 S6        29.90F
WORTHINGTON    MOCLDY    59  48  67 SW12      29.91F
FAIRMONT       CLOUDY    59  54  82 S14       29.92F
$$

...SOUTHWEST WISCONSIN...


CITY           SKY/WX    TMP DP  RH WIND       PRES   REMARKS
LA CROSSE      CLOUDY    54  53  97 SE6       29.93F FOG
PRAIRIE DU CHI LGT RAIN  56  55  96 CALM      29.96F
BOSCOBEL       CLOUDY    56  54  93 S3        29.95F FOG
LONE ROCK      NOT AVBL
PLATTEVILLE    CLOUDY    58  49  73 CALM      29.97F
FORT MC COY    FOG       53  53  98 CALM      29.97S VSB 1
CAMP DOUGLAS   LGT RAIN  52  52 100 CALM      29.94F FOG
VIROQUA        CLOUDY    56  56 100 W7        29.97R
WIS DELLS      DRIZZLE   53  50  91 S3        29.94F
$$

...ELSEWHERE IN WISCONSIN...


CITY           SKY/WX    TMP DP  RH WIND       PRES   REMARKS
MILWAUKEE      CLOUDY    63  42  46 SW14      29.96F
MADISON        CLOUDY    56  52  86 CALM      29.95F
GREEN BAY      CLOUDY    49  48  97 E5        29.95R FOG
EAU CLAIRE     NOT AVBL
BLACK RVR FLS  FOG       52  52 100 CALM      29.95F VSB 1/2
MEDFORD        FOG       49  49  99 NE3       29.96F VSB 1/4
WAUSAU         CLOUDY    51  51 100 CALM      29.94F FOG
WIS RAPIDS     CLOUDY    52  51  97 CALM      29.96F FOG
MARSHFIELD     FOG       52  51  97 N3        29.95S VSB 1/2
RICE LAKE      CLOUDY    48  46  92 CALM      29.97F FOG
$$

...NORTHEAST IOWA...


CITY           SKY/WX    TMP DP  RH WIND       PRES   REMARKS
WATERLOO       MOCLDY    56  55  97 MISG      29.94F
DUBUQUE        CLOUDY    59  50  72 CALM      29.96F
DECORAH        CLOUDY    55  55 100 CALM      29.95F
MASON CITY     LGT RAIN  57  56  96 S6        29.94F
CHARLES CITY   MOCLDY    57  55  94 SE8       29.94F
OELWEIN        CLOUDY   N/A N/A N/A NE6       29.96F
$$

...ELSEWHERE IN IOWA...


CITY           SKY/WX    TMP DP  RH WIND       PRES   REMARKS
DES MOINES     CLOUDY    65  54  67 CALM      29.96F
IOWA CITY      CLOUDY    59  49  69 CALM      29.97S
FORT DODGE     CLOUDY    59  55  88 SE5       29.96S
MARSHALLTOWN   MOCLDY    58  52  80 NW8       29.93F
CEDAR RAPIDS   CLOUDY    62  49  62 SW5       29.95S
$$

...NORTHERN ILLINOIS...


CITY           SKY/WX    TMP DP  RH WIND       PRES   REMARKS
CHICAGO-OHARE  CLOUDY    64  40  41 SW9       30.00S
DUPAGE         CLOUDY    57  44  62 S7        29.99F
CHICAGO-MIDWAY CLOUDY    63  43  48 S9        30.00F
MOLINE         PTCLDY    63  42  46 S9        29.96F
ROCKFORD       CLOUDY    61  44  53 S5        29.99F
STERLING       CLOUDY    61  45  55 W3        29.97F
PEORIA         CLOUDY    60  44  55 S5        29.99F
$$

NOTE: "FAIR" INDICATES FEW OR NO CLOUDS BELOW 12,000 FEET WITH NO
SIGNIFICANT WEATHER AND/OR OBSTRUCTIONS TO VISIBILITY. WIND
SPEEDS ARE IN MILES-PER-HOUR.



USA.gov is the U.S. government's official web portal to all federal, state and local government web resources and services.